Regional Weather Roundup
Issued by NWS Bismarck, ND

Home | Current Version | Previous Version | Graphics & Text | Print | Product List | Glossary On
Versions: 1 2 3 4 5 6 7 8 9 10 11 12 13 14 15 16 17 18 19 20 21 22 23 24 25 26 27 28 29 30 31 32 33 34 35 36 37 38 39 40 41 42 43 44 45 46 47 48 49 50
000
ASUS43 KBIS 302110
RWRBIS

NWR BROADCAST TEXT
NATIONAL WEATHER SERVICE BISMARCK ND
400 PM CDT TUE JUN 30 2015

NOTE: "FAIR" INDICATES FEW OR NO CLOUDS BELOW 12,000 FEET WITH NO
SIGNIFICANT WEATHER AND/OR OBSTRUCTIONS TO VISIBILITY.


CITY           SKY/WX    TMP DP  RH WIND       PRES   REMARKS
WILLISTON      PTSUNNY   78  57  48 E16       29.89S HAZE
MINOT          CLOUDY    69  63  81 NE3       29.90F HAZE
MINOT AFB      CLOUDY    70  70  99 NE8       29.90F
BISMARCK       CLOUDY    77  59  53 SE8       29.89F
DICKINSON      MOSUNNY   76  63  64 SE16      29.88F
GARRISON         N/A     70  67  90 CALM      29.92R
HETTINGER ARPT CLOUDY    78  65  63 SE16G24   29.90F
JAMESTOWN      PTSUNNY   73  61  65 SE10      29.91F
BEACH          FAIR      81  66  61 SE15      29.87F
CROSBY         RAIN      63  63 100 NE3       29.94R
HARVEY         FAIR      72  64  78 NE8       29.93R
HAZEN          CLOUDY    72  63  73 NE5       29.94R
LINTON         FAIR      73  68  83 S9        29.89F
MANDAN         MOCLDY    75  64  69 SE7       29.91R
OAKES            N/A     73  68  83 E9        29.90F
STANLEY        DRZL/FOG  66  66 100 NE9       29.96R VSB 3/4
$$

CITY           SKY/WX    TMP DP  RH WIND       PRES   REMARKS
GRAND FORKS    CLOUDY    76  58  53 SE6       29.91S
GRAND FORKS AF CLOUDY    74  59  58 SE6       29.92R
DEVILS LAKE    CLOUDY    70  57  64 E7        29.93R
FARGO          CLOUDY    74  58  57 E6        29.90F
CANDO          FAIR      70  63  78 SE8       29.94S
CAVALIER       FAIR      75  59  57 S3        29.92S
GRAFTON        FAIR      75  57  53 VRB5      29.93S
LANGDON        FAIR      73  61  64 S5        29.95S
ROLLA          FAIR      68  59  73 SE6       29.96S
WALHALLA       FAIR      73  59  60 MISG      29.93S
$$

CITY           SKY/WX    TMP DP  RH WIND       PRES   REMARKS
ABERDEEN       CLOUDY    76  62  62 E5        29.90S
MOBRIDGE       LGT RAIN  71  68  90 E8        29.90F FOG
BUFFALO          N/A     81  66  60 SE10      29.83F
RAPID CITY     PTSUNNY   83  70  64 NE14      29.91R
SIDNEY         MOSUNNY   86  63  45 SE15      29.84F
WOLF POINT     SUNNY     90  63  40 E16       29.81F HAZE    HX  91
GLENDIVE       MOSUNNY   88  61  40 W5        29.82F
MILES CITY     MOSUNNY   96  53  23 NW15G29   29.83F HX  93
BAKER          MOSUNNY   86  65  49 VRB3      29.87F
$$

CITY           SKY/WX    TMP DP  RH WIND       PRES   REMARKS
BILLINGS       MOSUNNY   94  45  18 NW18G30   29.96S HX  90
GREAT FALLS    SUNNY     91  40  16 NW17G25   29.97F
REGINA         LGT RAIN  64  59  82 N3        29.94R SMOKE
ESTEVAN        CLOUDY    66  61  82 CALM      29.93F THUNDER SMOKE
$$



USA.gov is the U.S. government's official web portal to all federal, state and local government web resources and services.